Terminal Aerodrome Forecast
Issued by NWS

Home | Current Version | Previous Version | Text Only | Print | Product List | Glossary On
Versions: 1 2 3 4 5 6 7 8 9 10 11 12 13 14 15 16 17 18 19 20 21 22
000
FTUS42 KFFC 061517 AAB
TAFRYY
TAF AMD
KRYY 061517Z 0615/0712 34004KT P6SM BKN025
     FM061600 03005KT P6SM BKN035
     FM061800 01005KT P6SM SCT040
     FM062100 32004KT P6SM SKC
     FM070000 32004KT P6SM SKC=

USA.gov is the U.S. government's official web portal to all federal, state and local government web resources and services.